Location: Demmingen
(48.6757°N, 10.4375°E)
Time: 00:56:58
(UTC+00:00)

CZ-2C R/B - Pass Details

Date: 09 August 2024
Orbit: 703 x 904 km, 98.2° (Epoch: 07 September)

Event Time Altitude Azimuth Distance (km) Brightness Sun altitude
Rises 00:01:02 0° 28° (NNE) 3,173 7.4 -25.0°
Reaches altitude 10° 00:04:05 10° 49° (NE) 2,277 6.1 -24.9°
Maximum altitude 00:07:21 17° 90° (E) 1,856 5.1 -24.8°
Enters shadow 00:09:00 15° 113° (ESE) 1,996 5.0 -24.8°
